PulseSat

PulseSat

GSAT0104 (GALILEO-FM4)

Last updated on Dec. 9, 2018, 12:08 a.m. UTC

1 38858U 12055B   18341.67415704  .00000070  00000-0  00000+0 0  9992
2 38858  54.9169 177.1507 0000171 151.6347 208.4261  1.70473868 38257
UTC
Height (km)
Latitude
Longitude
Inclination
Orbital Period

Next 30 passes for location: Hong Kong

Rise time Rise Azimuth (degrees) Set time Set Azimuth (degrees) Duration Max altitude (degrees)

No matching passes for this satellites

PulseSat

PulseSat is the new satellites software and hardware trackering solution by Pulsely.
Satellite Two Line Element Set source: US Air Force Space Command

Download PulseSat for iOS
© 2017 Pulsely Limited